KZR4586 UAAA-OPSD

Flight info

Callsign KZR4586
Flight time N/A
Altitude 36000
Route LAKEL1B LAKEL L135 MAMIR P984 SOMUS L142 OSH L145 INLOS/N0457F350 DCT BAVRO DCT AKTIX DCT BIREB
Aircraft A21N/M-SDE2E3FGHIRWXY/LB1

Departure

Time 2026-04-25 16:45
Airport Almaty International Airport (UAAA)

Arrival

Time N/A
Airport Skardu International Airport (OPSD)
Time Latitude Longitude Altitude Speed Heading
2026-04-25 16:45 43.44802 77.17793 4892 ft 262 kts 350°
2026-04-25 16:45 43.46487 77.16851 5092 ft 264 kts 328°
2026-04-25 16:46 43.48068 77.15422 5294 ft 276 kts 327°
2026-04-25 16:46 43.49660 77.13958 5486 ft 275 kts 327°
2026-04-25 16:46 43.51278 77.12527 5680 ft 276 kts 329°
2026-04-25 16:46 43.51832 77.12051 5744 ft 277 kts 329°
2026-04-25 16:47 43.54011 77.08948 6075 ft 276 kts 291°
2026-04-25 16:47 43.54386 77.06381 6298 ft 276 kts 273°
2026-04-25 16:47 43.54450 77.03719 6862 ft 278 kts 271°
2026-04-25 16:47 43.54480 77.01073 7888 ft 275 kts 271°
2026-04-25 16:48 43.54534 76.98423 8809 ft 278 kts 272°
2026-04-25 16:48 43.54876 76.95805 9724 ft 281 kts 292°
2026-04-25 16:48 43.55902 76.93486 10448 ft 292 kts 311°
2026-04-25 16:48 43.57393 76.91424 10756 ft 315 kts 314°
2026-04-25 16:49 43.59023 76.89251 11104 ft 333 kts 313°
2026-04-25 16:49 43.60674 76.86982 11872 ft 336 kts 312°
2026-04-25 16:49 43.61757 76.85453 12424 ft 337 kts 311°
2026-04-25 16:49 43.63936 76.82316 13522 ft 340 kts 310°
2026-04-25 16:50 43.65572 76.79937 14262 ft 343 kts 309°
2026-04-25 16:50 43.66658 76.78354 14728 ft 344 kts 309°
2026-04-25 16:50 43.68872 76.75130 15661 ft 347 kts 309°
2026-04-25 16:50 43.69976 76.73523 16107 ft 349 kts 309°
2026-04-25 16:51 43.71514 76.70936 16794 ft 348 kts 297°
2026-04-25 16:51 43.72577 76.66784 17638 ft 349 kts 276°
2026-04-25 16:51 43.72564 76.63427 18279 ft 353 kts 261°
2026-04-25 16:51 43.72397 76.62302 18478 ft 355 kts 255°
2026-04-25 16:52 43.70979 76.58147 19221 ft 363 kts 237°
2026-04-25 16:52 43.69219 76.55617 19805 ft 371 kts 219°
2026-04-25 16:52 43.66911 76.53963 20343 ft 381 kts 201°
2026-04-25 16:52 43.64263 76.53355 20890 ft 392 kts 183°
2026-04-25 16:53 43.58837 76.54793 21958 ft 405 kts 170°
2026-04-25 16:53 43.56098 76.55771 22501 ft 409 kts 168°
2026-04-25 16:53 43.53396 76.57076 23033 ft 415 kts 160°
2026-04-25 16:54 43.50825 76.58949 23553 ft 423 kts 150°
2026-04-25 16:54 43.48461 76.61424 24010 ft 429 kts 145°
2026-04-25 16:54 43.46136 76.64026 24449 ft 431 kts 146°
2026-04-25 16:54 43.43787 76.66605 24870 ft 434 kts 147°
2026-04-25 16:55 43.41402 76.69160 25289 ft 436 kts 147°
2026-04-25 16:55 43.38991 76.71705 25703 ft 437 kts 148°
2026-04-25 16:55 43.36565 76.74246 26094 ft 440 kts 148°
2026-04-25 16:55 43.34117 76.76791 26527 ft 444 kts 147°
2026-04-25 16:56 43.31622 76.79368 26655 ft 453 kts 147°
2026-04-25 16:56 43.29109 76.81987 27018 ft 455 kts 147°
2026-04-25 16:56 43.26469 76.84338 27404 ft 450 kts 159°
2026-04-25 16:56 43.23536 76.85768 27683 ft 447 kts 172°
2026-04-25 16:57 43.20469 76.86251 27940 ft 443 kts 185°
2026-04-25 16:57 43.18438 76.86057 28113 ft 440 kts 193°
2026-04-25 16:57 43.14546 76.84465 28435 ft 436 kts 210°
2026-04-25 16:57 43.11968 76.82304 28648 ft 435 kts 221°
2026-04-25 16:58 43.09557 76.79767 28879 ft 438 kts 220°
2026-04-25 16:58 43.07133 76.77235 29180 ft 440 kts 220°
2026-04-25 16:58 43.04797 76.74754 29329 ft 417 kts 223°
2026-04-25 16:58 43.02655 76.72154 29516 ft 397 kts 226°
2026-04-25 16:59 43.00729 76.69630 29628 ft 377 kts 227°
2026-04-25 16:59 42.98881 76.67099 29756 ft 376 kts 228°
2026-04-25 16:59 42.97051 76.64535 29708 ft 376 kts 229°
2026-04-25 17:00 42.93466 76.59392 29723 ft 374 kts 229°
2026-04-25 17:00 42.91699 76.56782 30035 ft 377 kts 230°
2026-04-25 17:00 42.89909 76.54130 30177 ft 383 kts 229°
2026-04-25 17:00 42.88084 76.51432 30303 ft 390 kts 229°
2026-04-25 17:01 42.86235 76.48692 30441 ft 396 kts 229°
2026-04-25 17:01 42.84356 76.45911 30575 ft 401 kts 229°
2026-04-25 17:01 42.82458 76.43097 30709 ft 407 kts 229°
2026-04-25 17:01 42.80526 76.40239 30841 ft 412 kts 229°
2026-04-25 17:02 42.78577 76.37352 30969 ft 417 kts 229°
2026-04-25 17:02 42.76610 76.34436 31093 ft 420 kts 229°
2026-04-25 17:02 42.74627 76.31494 31216 ft 422 kts 229°
2026-04-25 17:02 42.72640 76.28549 31332 ft 424 kts 229°
2026-04-25 17:03 42.70638 76.25588 31454 ft 425 kts 229°
2026-04-25 17:03 42.68662 76.22658 31577 ft 427 kts 229°
2026-04-25 17:03 42.66659 76.19683 31705 ft 427 kts 229°
2026-04-25 17:03 42.64651 76.16704 31834 ft 428 kts 229°
2026-04-25 17:04 42.62645 76.13717 31963 ft 428 kts 229°
2026-04-25 17:04 42.60644 76.10729 32068 ft 427 kts 229°
2026-04-25 17:04 42.58647 76.07748 32196 ft 427 kts 229°
2026-04-25 17:04 42.56659 76.04794 32299 ft 414 kts 229°
2026-04-25 17:05 42.54766 76.01991 32371 ft 393 kts 229°
2026-04-25 17:05 42.51207 75.96719 32495 ft 370 kts 229°
2026-04-25 17:05 42.49466 75.94133 32571 ft 374 kts 230°
2026-04-25 17:06 42.47998 75.91213 32617 ft 378 kts 245°
2026-04-25 17:06 42.47348 75.87744 32729 ft 386 kts 263°
2026-04-25 17:06 42.47412 75.84087 32972 ft 391 kts 270°
2026-04-25 17:06 42.47434 75.80429 33051 ft 387 kts 253°
2026-04-25 17:07 42.46607 75.77071 33743 ft 374 kts 248°
2026-04-25 17:07 42.45516 75.73823 33976 ft 373 kts 242°
2026-04-25 17:07 42.44364 75.70789 34547 ft 364 kts 242°
2026-04-25 17:07 42.43250 75.67749 34965 ft 358 kts 246°
2026-04-25 17:08 42.42375 75.64630 35356 ft 352 kts 254°
2026-04-25 17:08 42.41814 75.61393 35734 ft 347 kts 262°
2026-04-25 17:08 42.41646 75.58154 36104 ft 343 kts 265°
2026-04-25 17:08 42.41701 75.54993 36442 ft 339 kts 268°
2026-04-25 17:09 42.41708 75.51805 36574 ft 339 kts 264°
2026-04-25 17:09 42.41622 75.48616 36659 ft 339 kts 263°
2026-04-25 17:09 42.41357 75.42212 36783 ft 342 kts 260°
2026-04-25 17:10 42.40797 75.35814 36907 ft 343 kts 255°
2026-04-25 17:10 42.40130 75.29409 37102 ft 346 kts 262°
2026-04-25 17:11 42.39699 75.22921 37253 ft 347 kts 259°
2026-04-25 17:11 42.39216 75.16419 37441 ft 348 kts 262°
2026-04-25 17:12 42.38757 75.09891 37636 ft 350 kts 261°
2026-04-25 17:12 42.38454 75.06624 37742 ft 350 kts 259°
2026-04-25 17:12 42.37911 75.03427 37827 ft 349 kts 247°
2026-04-25 17:13 42.36701 75.00609 37901 ft 347 kts 233°
2026-04-25 17:13 42.36192 74.99750 37956 ft 348 kts 231°
2026-04-25 17:13 42.32053 74.93328 37923 ft 354 kts 230°
2026-04-25 17:14 42.30527 74.90989 37956 ft 355 kts 230°
2026-04-25 17:14 42.27506 74.86381 37993 ft 356 kts 230°
2026-04-25 17:15 42.24205 74.81353 38076 ft 360 kts 230°
2026-04-25 17:15 42.20883 74.76281 38150 ft 361 kts 230°
2026-04-25 17:16 42.17550 74.71181 38231 ft 363 kts 230°
2026-04-25 17:16 42.13723 74.66765 37900 ft 383 kts 202°
2026-04-25 17:17 42.11104 74.65850 37722 ft 394 kts 195°
2026-04-25 17:17 42.08351 74.65289 37568 ft 404 kts 192°
2026-04-25 17:17 42.05520 74.64933 37419 ft 413 kts 189°
2026-04-25 17:17 42.02616 74.64677 37204 ft 422 kts 188°
2026-04-25 17:18 41.99666 74.64457 37051 ft 426 kts 189°
2026-04-25 17:18 41.96772 74.63828 36871 ft 417 kts 203°
2026-04-25 17:18 41.94150 74.62276 36745 ft 410 kts 214°
2026-04-25 17:18 41.92025 74.59824 36388 ft 403 kts 238°
2026-04-25 17:19 41.90765 74.56479 36082 ft 402 kts 248°
2026-04-25 17:19 41.89880 74.52918 36044 ft 402 kts 254°
2026-04-25 17:19 41.89269 74.49251 36182 ft 404 kts 262°
2026-04-25 17:19 41.89009 74.45494 36279 ft 405 kts 266°
2026-04-25 17:20 41.88543 74.41821 36134 ft 402 kts 242°
2026-04-25 17:20 41.86822 74.38870 35759 ft 401 kts 222°
2026-04-25 17:20 41.84486 74.36924 36408 ft 394 kts 207°
2026-04-25 17:20 41.81854 74.35993 36970 ft 392 kts 189°
2026-04-25 17:21 41.79137 74.36083 37526 ft 390 kts 176°
2026-04-25 17:21 41.76514 74.36888 38050 ft 384 kts 169°
2026-04-25 17:21 41.74014 74.38049 38526 ft 376 kts 166°
2026-04-25 17:21 41.71525 74.38468 38335 ft 357 kts 198°
2026-04-25 17:22 41.68340 74.37403 38292 ft 352 kts 202°
2026-04-25 17:22 41.64439 74.35612 38009 ft 361 kts 202°
2026-04-25 17:22 41.61993 74.34691 37889 ft 369 kts 199°
2026-04-25 17:23 41.59470 74.33928 37768 ft 375 kts 195°
2026-04-25 17:23 41.56863 74.33415 37652 ft 382 kts 191°
2026-04-25 17:23 41.54205 74.33094 37547 ft 386 kts 190°
2026-04-25 17:23 41.51545 74.32584 37463 ft 386 kts 200°
2026-04-25 17:24 41.49060 74.31297 37411 ft 383 kts 213°
2026-04-25 17:24 41.46832 74.29371 37393 ft 383 kts 221°
2026-04-25 17:24 41.42888 74.24552 37376 ft 388 kts 229°
2026-04-25 17:25 41.39304 74.19106 37337 ft 395 kts 232°
2026-04-25 17:25 41.35753 74.13431 37247 ft 404 kts 231°
2026-04-25 17:26 41.32092 74.07661 37175 ft 411 kts 231°
2026-04-25 17:26 41.28396 74.01872 37103 ft 410 kts 231°
2026-04-25 17:27 41.24714 73.96074 37035 ft 411 kts 233°
2026-04-25 17:27 41.22343 73.92155 36982 ft 411 kts 232°
2026-04-25 17:28 41.19290 73.87253 36605 ft 411 kts 232°
2026-04-25 17:28 41.17459 73.84358 36392 ft 409 kts 231°
2026-04-25 17:28 41.13756 73.78572 36276 ft 413 kts 231°
2026-04-25 17:29 41.10116 73.72743 36188 ft 412 kts 231°
2026-04-25 17:29 41.06470 73.66863 36261 ft 413 kts 232°
2026-04-25 17:30 41.02794 73.61011 36180 ft 413 kts 232°
2026-04-25 17:30 40.99132 73.55130 36250 ft 415 kts 232°
2026-04-25 17:31 40.95467 73.49238 36332 ft 415 kts 232°
2026-04-25 17:31 40.91755 73.43382 36393 ft 415 kts 231°
2026-04-25 17:32 40.88009 73.37492 36231 ft 415 kts 233°
2026-04-25 17:32 40.84394 73.31549 36162 ft 415 kts 232°
2026-04-25 17:33 40.80817 73.25613 36116 ft 416 kts 233°
2026-04-25 17:33 40.77838 73.20568 36151 ft 413 kts 234°
2026-04-25 17:34 40.76081 73.17592 36345 ft 412 kts 233°
2026-04-25 17:34 40.74267 73.14642 36360 ft 416 kts 231°
2026-04-25 17:34 40.72049 73.12169 36317 ft 424 kts 211°
2026-04-25 17:34 40.69305 73.10659 36386 ft 431 kts 201°
2026-04-25 17:35 40.66364 73.09766 36398 ft 437 kts 190°
2026-04-25 17:35 40.63302 73.09678 36438 ft 444 kts 179°
2026-04-25 17:35 40.57133 73.10525 36375 ft 446 kts 177°
2026-04-25 17:36 40.54056 73.11017 36262 ft 444 kts 180°
2026-04-25 17:36 40.51020 73.11164 36180 ft 443 kts 183°
2026-04-25 17:36 40.44814 73.11915 36027 ft 444 kts 180°
2026-04-25 17:37 40.41790 73.12156 36292 ft 440 kts 182°
2026-04-25 17:37 40.38730 73.12235 36414 ft 440 kts 185°
2026-04-25 17:37 40.32616 73.11908 36586 ft 441 kts 187°
2026-04-25 17:38 40.27503 73.11826 36480 ft 446 kts 180°
2026-04-25 17:38 40.20320 73.13228 36422 ft 449 kts 173°
2026-04-25 17:39 40.14203 73.15029 36415 ft 452 kts 171°
2026-04-25 17:39 40.08113 73.16997 36401 ft 451 kts 170°
2026-04-25 17:40 40.02064 73.18966 36386 ft 453 kts 171°
2026-04-25 17:40 39.95955 73.20912 36353 ft 449 kts 172°
2026-04-25 17:41 39.89826 73.22587 36337 ft 450 kts 173°
2026-04-25 17:41 39.83662 73.23724 36289 ft 443 kts 185°
2026-04-25 17:42 39.77574 73.23083 36320 ft 438 kts 194°
2026-04-25 17:42 39.71665 73.21514 36346 ft 435 kts 197°
2026-04-25 17:43 39.65779 73.19634 36357 ft 438 kts 198°
2026-04-25 17:43 39.59812 73.17660 36407 ft 447 kts 197°
2026-04-25 17:44 39.56719 73.17002 36414 ft 455 kts 186°
2026-04-25 17:44 39.53495 73.17196 36464 ft 461 kts 176°
2026-04-25 17:44 39.47205 73.19003 36540 ft 464 kts 168°
2026-04-25 17:45 39.42033 73.20891 36594 ft 464 kts 172°
2026-04-25 17:45 39.34684 73.22641 36520 ft 462 kts 176°
2026-04-25 17:46 39.31514 73.23285 36399 ft 460 kts 178°
2026-04-25 17:46 39.28352 73.23867 36322 ft 459 kts 177°
2026-04-25 17:46 39.22009 73.24917 36218 ft 459 kts 179°
2026-04-25 17:47 39.15666 73.25867 36308 ft 459 kts 180°
2026-04-25 17:47 39.09307 73.26689 36386 ft 459 kts 180°
2026-04-25 17:48 38.99771 73.27983 36520 ft 459 kts 180°
2026-04-25 17:49 38.93413 73.28882 36625 ft 460 kts 178°
2026-04-25 17:49 38.87064 73.29920 36736 ft 460 kts 178°
2026-04-25 17:50 38.80748 73.30929 36573 ft 459 kts 179°
2026-04-25 17:50 38.74360 73.31883 36423 ft 459 kts 179°
2026-04-25 17:51 38.68023 73.32817 36271 ft 453 kts 179°
2026-04-25 17:51 38.64947 73.33278 36169 ft 438 kts 179°
2026-04-25 17:51 38.61975 73.33759 36060 ft 423 kts 179°
2026-04-25 17:51 38.59151 73.34283 35998 ft 408 kts 175°
2026-04-25 17:52 38.56422 73.34898 36110 ft 386 kts 175°
2026-04-25 17:52 38.54674 73.35297 36193 ft 371 kts 176°
2026-04-25 17:52 38.51430 73.35955 36179 ft 343 kts 180°
2026-04-25 17:52 38.49128 73.36303 35992 ft 325 kts 179°
2026-04-25 17:53 38.46905 73.36618 36079 ft 314 kts 180°
2026-04-25 17:53 38.44819 73.36906 36593 ft 289 kts 181°
2026-04-25 17:53 38.42836 73.37137 36524 ft 288 kts 183°
2026-04-25 17:53 38.40773 73.37302 35887 ft 307 kts 184°
2026-04-25 17:54 38.38608 73.37417 35581 ft 312 kts 184°
2026-04-25 17:54 38.36495 73.37511 35861 ft 294 kts 185°
2026-04-25 17:54 38.34503 73.37562 36039 ft 283 kts 186°
2026-04-25 17:54 38.32512 73.37549 35693 ft 292 kts 187°
2026-04-25 17:55 38.30445 73.37485 35264 ft 303 kts 188°
2026-04-25 17:55 38.28345 73.37390 35279 ft 297 kts 188°
2026-04-25 17:55 38.26332 73.37288 35492 ft 283 kts 189°
2026-04-25 17:55 38.24388 73.37168 35347 ft 280 kts 189°
2026-04-25 17:56 38.22389 73.37012 34845 ft 296 kts 190°
2026-04-25 17:56 38.20317 73.36822 34677 ft 297 kts 190°
2026-04-25 17:56 38.18310 73.36634 34924 ft 282 kts 190°
2026-04-25 17:56 38.16406 73.36439 34962 ft 276 kts 191°
2026-04-25 17:57 38.14461 73.36206 34633 ft 287 kts 192°
2026-04-25 17:57 38.12446 73.35941 34355 ft 292 kts 192°
2026-04-25 17:57 38.10446 73.35663 34391 ft 285 kts 192°
2026-04-25 17:57 38.09784 73.35569 34430 ft 281 kts 192°
2026-04-25 17:58 38.06589 73.35120 34290 ft 280 kts 192°
2026-04-25 17:58 38.04626 73.34971 33785 ft 289 kts 175°
2026-04-25 17:58 38.02568 73.35273 33007 ft 307 kts 166°
2026-04-25 17:58 38.00580 73.36375 32482 ft 315 kts 148°
2026-04-25 17:59 37.98753 73.37770 32497 ft 295 kts 152°
2026-04-25 17:59 37.97012 73.39018 32447 ft 286 kts 161°
2026-04-25 17:59 37.95100 73.39769 32047 ft 292 kts 179°
2026-04-25 17:59 37.93086 73.39988 32093 ft 284 kts 185°
2026-04-25 18:00 37.91201 73.39883 32555 ft 260 kts 193°
2026-04-25 18:00 37.89439 73.39525 32563 ft 257 kts 198°
2026-04-25 18:00 37.87653 73.38973 32117 ft 272 kts 200°
2026-04-25 18:00 37.85810 73.38294 31944 ft 275 kts 202°
2026-04-25 18:01 37.84028 73.37587 32244 ft 261 kts 203°
2026-04-25 18:01 37.82340 73.36867 32429 ft 254 kts 205°
2026-04-25 18:01 37.80660 73.36077 32181 ft 263 kts 206°
2026-04-25 18:01 37.78924 73.35204 31944 ft 271 kts 207°
2026-04-25 18:02 37.77197 73.34312 32078 ft 263 kts 207°
2026-04-25 18:02 37.75541 73.33436 32276 ft 254 kts 209°
2026-04-25 18:02 37.73939 73.32539 32156 ft 258 kts 210°
2026-04-25 18:02 37.72281 73.31568 31910 ft 267 kts 210°
2026-04-25 18:03 37.70612 73.30569 31872 ft 263 kts 210°
2026-04-25 18:03 37.69000 73.29609 31838 ft 247 kts 210°
2026-04-25 18:03 37.67400 73.28650 31322 ft 266 kts 210°